Find Sentinel-3B

NORAD ID: 43437 Int'l Des: 2018-039 Owner: COPERN/ESA Country: I-EU operational
LEOCIRCULARRETROGRADESSO

リアルタイム位置

3D地球を読み込み中...

Sentinel-3Bについて

説明を読み込み中...

次回通過

Passes for default location (London). Set your location on the main map for personalized predictions.

高度履歴

Loading altitude history...

軌道要素

1 43437U 18039A 26106.19486381 .00000062 00000-0 43674-4 0 9993
2 43437 98.6280 174.6058 0001660 100.7302 259.4065 14.26730966415288
Epoch: Apr 16, 2026 • Age: 16 hours

現在のステータス

高度 807.5 km
速度 7.45 km/s
衛星直下点 -10.12°S, 161.97°W
打ち上げ日 Apr 25, 2018
運用期間 7.9 years
タイプ earth observation

技術仕様

分類 Payload
質量 1250.00 kg
乾燥質量 1150.00 kg
総質量 1250.00 kg
長さ 3.70 m
直径 2.20 m
スパン 5.00 m
形状 Box + 1 pan
製造者 THALES
バスタイプ Sentinel-3A
フェーズステータス In Orbit
所有者/国 COPERN/ESA/I-EU

Most Searched